Location: Newark
(55.7167°N, 12.5667°E)
Time: 00:07:17
(UTC+00:00)

N. Korean satellite - Pass Details

Date: 18 December 2019
Orbit: 454 x 508 km, 97.2° (Epoch: 19 January)

Event Time Altitude Azimuth Distance (km) Brightness Sun altitude
Rises 15:22:53 0° 147° (SSE) 2,588 10.3 -5.9°
Reaches altitude 10° 15:25:01 10° 141° (SE) 1,702 9.3 -6.1°
Maximum altitude 15:28:31 44° 69° (ENE) 694 6.9 -6.6°
Drops below altitude 10° 15:32:00 10° 357° (N) 1,688 9.0 -7.0°
Sets 15:34:06 0° 350° (N) 2,564 10.0 -7.2°
